• Join FlightAware (Why Join?)
  • Login
  • US Flag GB Flag 
07:37 EST


 

Airport Tracker/Info


-or-


 

Live Flight TrackerFlight Track Log ✈ RPA3436 ✈ 30-Aug-2013 ✈ KDCA - KALB

Flight Track Log - Related Links

Times and Time Zones

All times are in EDT time to prevent confusion due to time zone crossing. See the RPA3436 flight status page for this flight to view local times or setup timezone preferences in your user account.

Time Position Orientation Groundspeed Altitude Reporting Facility
EDT Latitude Longitude Course Direction KTS MPH feet Rate Location/Type
10:23 38.8167 -77.0333 61° Northeast 154 177 1,700  Level Potomac TRACON
10:25 38.9636 -76.6925 67° East  Level FlightAware Approximate
10:25 38.7639 -76.9575 132° Southeast 188 216 5,300  Level Washington Center
10:26 39.0099 -76.5802 57° Northeast  Level FlightAware Approximate
10:26 38.8292 -76.9053 32° Northeast 152 175 8,800  Level Washington Center
10:27 39.0536 -76.4659 63° Northeast  Level FlightAware Approximate
10:27 38.8861 -76.8344 44° Northeast 219 252 10,900  Level Washington Center
10:28 39.1008 -76.3536 61° Northeast  Level FlightAware Approximate
10:28 38.9331 -76.7231 62° Northeast 292 336 13,000  Level Washington Center
10:29 38.9842 -76.6117 59° Northeast 330 380 15,100 2,182 Climbing Washington Center
10:30 39.0350 -76.4922 61° Northeast 352 405 17,400 1,934 Climbing Washington Center
10:31 39.0900 -76.3725 59° Northeast 375 432 19,000 1,785 Climbing Washington Center
10:32 39.1408 -76.2472 62° Northeast 386 444 21,000 1,765 Climbing Washington Center
10:33 39.1686 -76.1003 76° East 399 459 22,500 1,563 Climbing Washington Center
10:34 39.2067 -75.9639 70° East 404 465 24,100 1,574 Climbing Washington Center
10:35 39.2861 -75.8517 48° Northeast 404 465 25,700 1,462 Climbing Washington Center
10:36 39.3633 -75.7364 49° Northeast 410 472 27,000 655 Climbing Washington Center
10:37 39.4428 -75.6264 47° Northeast 415 478 27,000  Level Washington Center
10:38 39.5197 -75.5108 49° Northeast 415 478 27,000  Level Washington Center
10:39 39.5989 -75.3950 48° Northeast 415 478 27,000  Level Washington Center
10:41 39.7767 -75.1306 49° Northeast 424 488 27,000  Level New York Center
10:42 39.8558 -75.0164 48° Northeast 424 488 27,000  Level New York Center
10:43 39.9350 -74.8967 49° Northeast 424 488 27,000  Level New York Center
10:44 40.0161 -74.7822 47° Northeast 419 482 27,000  Level New York Center
10:45 40.0931 -74.6644 49° Northeast 424 488 27,000  Level New York Center
10:46 40.1719 -74.5467 49° Northeast 424 488 27,000  Level New York Center
10:47 40.2589 -74.4344 45° Northeast 429 494 27,000  Level New York Center
10:48 40.3514 -74.3358 39° Northeast 429 494 27,000  Level New York Center
10:50 40.5392 -74.1331 39° Northeast 437 503 27,000  Level Boston Center
10:51 40.6344 -74.0344 38° Northeast 432 497 27,000 -893 Level Boston Center
10:52 40.7253 -73.9381 39° Northeast 427 491 25,200 -1,488 Descending Boston Center
10:53 40.8119 -73.8442 39° Northeast 411 473 24,000 -694 Descending Boston Center
10:54 40.8944 -73.7389 44° Northeast 406 467 23,800 -446 Descending Boston Center
10:55 40.9792 -73.6306 44° Northeast 406 467 23,100 -400 Descending Boston Center
10:56 41.0614 -73.5356 41° Northeast 401 461 23,000 -661 Descending Boston Center
10:57 41.1436 -73.4350 43° Northeast 396 456 21,800 -1,373 Descending Boston Center
10:58 41.2236 -73.3397 42° Northeast 396 456 20,300 -1,525 Descending Boston Center
10:59 41.3236 -73.3247 North 357 411 18,700 -1,131 Descending Boston Center
11:00 41.4194 -73.3453 351° North 339 390 18,000 -356 Descending Boston Center
11:01 41.5253 -73.3717 349° North 345 397 18,000 -50 Level Boston Center
11:02 41.6231 -73.3981 349° North 357 411 17,900 -545 Descending Boston Center
11:03 41.7208 -73.4247 348° North 351 404 16,900 -1,000 Descending Boston Center
11:04 41.8167 -73.4483 350° North 351 404 15,900 -992 Descending Boston Center
11:05 41.9100 -73.4750 348° North 351 404 14,900 -1,462 Descending Boston Center
11:06 41.9975 -73.4961 350° North 345 397 13,000 -1,678 Descending Boston Center
11:07 42.0783 -73.5197 348° North 328 377 11,600 -984 Descending Boston Center
11:08 42.1594 -73.5575 341° North 313 360 11,000 -689 Descending Boston Center
11:09 42.2381 -73.6067 335° Northwest 307 353 10,200 -500 Descending Boston Center
11:10 42.3106 -73.6531 335° Northwest 295 339 10,000 -153 Descending Boston Center
11:11 42.3728 -73.6850 339° North 260 299 9,900 -1,210 Descending Boston Center
11:12 42.4347 -73.7228 336° Northwest 219 252 7,600 -2,132 Descending Boston Center
11:13 42.4844 -73.7547 335° Northwest 214 246 5,600 -1,950 Descending Boston Center
11:14 42.5467 -73.7900 337° Northwest 214 246 3,700 -1,451 Descending Boston Center
11:15 42.5694 -73.7989 344° North 196 226 3,400 -689 Descending Boston Center
11:15 42.5925 -73.7967 North 192 221 3,000 -909 Descending Boston Center
11:16 42.6278 -73.8003 356° North 176 203 2,400 -989 Descending Boston Center
11:17 42.6694 -73.8039 356° North 169 194 1,500 -828 Descending Boston Center
11:18 42.7069 -73.8047 359° North 131 151 800 -689 Descending Boston Center